TimeMST,TemperatureF,Dew PointF,Humidity,Sea Level PressureIn,VisibilityMPH,Wind Direction,Wind SpeedMPH,Gust SpeedMPH,PrecipitationIn,Events,Conditions,WindDirDegrees,DateUTC
12:16 AM,8.6,5.0,85,30.41,2.0,South,4.6,-,0.00,Snow,Light Snow,180,2013-01-04 07:16:00
12:23 AM,8.6,5.0,85,30.41,1.8,South,5.8,-,0.00,Snow,Light Snow,170,2013-01-04 07:23:00
12:34 AM,8.6,3.2,79,30.41,2.0,SSE,3.5,-,0.00,Snow,Light Snow,150,2013-01-04 07:34:00
12:53 AM,8.1,3.9,83,30.58,2.5,South,6.9,-,0.00,Snow,Light Snow,190,2013-01-04 07:53:00
1:03 AM,8.6,3.2,79,30.40,4.0,South,6.9,-,0.00,Snow,Light Snow,170,2013-01-04 08:03:00
1:53 AM,8.1,3.9,83,30.57,5.0,South,8.1,-,0.00,,Overcast,170,2013-01-04 08:53:00
2:53 AM,8.1,3.0,80,30.58,4.0,South,5.8,-,0.00,Snow,Light Snow,180,2013-01-04 09:53:00
3:36 AM,8.6,1.4,73,30.41,9.0,SSE,6.9,-,0.00,,Overcast,160,2013-01-04 10:36:00
3:53 AM,7.0,1.0,77,30.58,9.0,South,4.6,-,0.00,,Overcast,170,2013-01-04 10:53:00
6:53 AM,3.9,-2.9,73,30.60,10.0,South,8.1,-,N/A,,Partly Cloudy,170,2013-01-04 13:53:00
7:41 AM,5.0,-2.2,72,30.40,10.0,SSE,6.9,-,N/A,,Mostly Cloudy,160,2013-01-04 14:41:00
7:53 AM,5.0,-0.9,76,30.61,10.0,SSE,6.9,-,N/A,,Mostly Cloudy,160,2013-01-04 14:53:00
8:53 AM,7.0,-0.0,73,30.61,7.0,Calm,Calm,-,N/A,,Mostly Cloudy,0,2013-01-04 15:53:00
9:00 AM,6.8,-0.4,72,30.42,8.0,Calm,Calm,-,N/A,,Scattered Clouds,0,2013-01-04 16:00:00
9:20 AM,6.8,-0.4,72,30.41,10.0,SSE,4.6,-,N/A,,Mostly Cloudy,160,2013-01-04 16:20:00
9:44 AM,6.8,-0.4,72,30.42,8.0,South,5.8,-,N/A,,Scattered Clouds,170,2013-01-04 16:44:00
9:53 AM,7.0,-0.0,73,30.63,10.0,South,4.6,-,N/A,,Clear,170,2013-01-04 16:53:00
10:10 AM,10.4,1.4,67,30.43,10.0,SSE,3.5,-,N/A,,Mostly Cloudy,150,2013-01-04 17:10:00
10:53 AM,12.9,5.0,71,30.62,4.0,Calm,Calm,-,N/A,,Haze,0,2013-01-04 17:53:00
11:08 AM,15.8,6.8,68,30.43,2.5,Calm,Calm,-,0.00,Snow,Light Snow,0,2013-01-04 18:08:00
11:15 AM,15.8,6.8,68,30.42,4.0,Calm,Calm,-,0.00,Snow,Light Snow,0,2013-01-04 18:15:00
11:45 AM,14.0,8.6,79,30.40,4.0,Calm,Calm,-,0.00,,Haze,0,2013-01-04 18:45:00
11:53 AM,14.0,8.1,77,30.57,5.0,NNW,3.5,-,0.00,,Haze,330,2013-01-04 18:53:00
12:53 PM,15.1,8.1,74,30.55,6.0,NW,6.9,-,N/A,,Haze,320,2013-01-04 19:53:00
1:28 PM,15.8,8.6,73,30.38,4.0,NW,8.1,-,N/A,,Haze,320,2013-01-04 20:28:00
1:53 PM,14.0,9.0,80,30.55,4.0,NW,5.8,-,N/A,,Haze,320,2013-01-04 20:53:00
2:53 PM,14.0,8.1,77,30.54,6.0,NNW,5.8,-,N/A,,Haze,330,2013-01-04 21:53:00
3:53 PM,12.9,7.0,77,30.56,4.0,NW,5.8,-,N/A,,Haze,310,2013-01-04 22:53:00
4:53 PM,10.0,6.1,84,30.56,5.0,NNW,4.6,-,N/A,,Clear,330,2013-01-04 23:53:00
5:53 PM,8.1,3.9,83,30.58,6.0,Calm,Calm,-,N/A,,Clear,0,2013-01-05 00:53:00
7:53 PM,9.0,3.9,80,30.60,6.0,Calm,Calm,-,N/A,,Haze,0,2013-01-05 02:53:00
8:23 PM,8.6,3.2,79,30.39,5.0,Calm,Calm,-,N/A,,Haze,0,2013-01-05 03:23:00
8:39 PM,8.6,5.0,85,30.39,5.0,Calm,Calm,-,N/A,,Overcast,0,2013-01-05 03:39:00
8:53 PM,9.0,5.0,84,30.59,4.0,Calm,Calm,-,N/A,,Overcast,0,2013-01-05 03:53:00
9:16 PM,8.6,5.0,85,30.39,3.0,South,3.5,-,N/A,,Overcast,170,2013-01-05 04:16:00
9:39 PM,8.6,5.0,85,30.39,4.0,SE,3.5,-,N/A,,Overcast,140,2013-01-05 04:39:00
9:53 PM,9.0,5.0,84,30.59,4.0,South,3.5,-,N/A,,Overcast,180,2013-01-05 04:53:00
10:17 PM,6.8,3.2,85,30.38,5.0,South,4.6,-,N/A,,Scattered Clouds,170,2013-01-05 05:17:00
10:53 PM,7.0,3.0,84,30.59,5.0,West,3.5,-,N/A,,Mostly Cloudy,260,2013-01-05 05:53:00
11:53 PM,7.0,1.9,80,30.58,6.0,South,5.8,-,N/A,,Haze,180,2013-01-05 06:53:00